Regional Weather Roundup
Issued by NWS Charleston, SC

Current Version | Previous Version | Text Only | Print | Product List | Glossary Off
Versions: 1 2 3 4 5 6 7 8 9 10 11 12 13 14 15 16 17 18 19 20 21 22 23 24 25 26 27 28 29 30 31 32 33 34 35 36 37 38 39 40 41 42 43 44 45 46 47 48 49 50

000
ASUS42 KCHS 100626
RWRCHS

REGIONAL WEATHER ROUNDUP
NATIONAL WEATHER SERVICE CHARLESTON SC
100 AM EST SUN DEC 10 2017

NOTE: "FAIR" INDICATES FEW OR NO CLOUDS BELOW 12,000 FEET WITH NO
SIGNIFICANT WEATHER AND/OR OBSTRUCTIONS TO VISIBILITY.

NOT ALL STATIONS ARE QUALITY CONTROLLED. USE DATA WITH CAUTION...
ESPECIALLY DEWPOINT OBSERVATIONS.

SCZ027-030-031-034>040-042>050-100700-
...SOUTHEAST SOUTH CAROLINA...

CITY           SKY/WX    TMP DP  RH WIND       PRES   REMARKS
N CHARLESTON   CLEAR     36  30  79 W10       30.10R WCI  28
6HR MIN TEMP:  36; 6HR MAX TEMP:  43;

WATERFRONT PRK   N/A     39  33  79 W7G15     29.94R WCI  34
JOHNS ISLAND   FAIR      37  30  75 W12G18    30.11R WCI  30
PINOPOLIS        N/A     37  34  87 W14       30.00R WCI  29
MONCKS CORNER  FAIR      34  28  80 W3        30.09R
SUMMERVILLE    FAIR      34  30  86 W6        30.11R WCI  29
BEAUFORT MCAS  CLEAR     37  30  75 W10       30.13R WCI  30
6HR MIN TEMP:  37; 6HR MAX TEMP:  43;

BEAUFORT ARPT  FAIR      37  30  75 W13G20    30.13S WCI  29
HILTON HEAD IS CLEAR     37  28  70 VRB9      30.15S WCI  31
WALTERBORO     CLEAR     34  28  80 W6        30.12S WCI  29
ALLENDALE      FAIR      34  28  80 CALM      30.12R

...SOUTHERN MIDLANDS AND PEE DEE...

CITY           SKY/WX    TMP DP  RH WIND       PRES   REMARKS
GEORGETOWN     FAIR      34  32  93 W5        30.08R WCI  30
KINGSTREE      FAIR      34  30  86 W7        30.08R WCI  28
ORANGEBURG     CLEAR     34  26  72 W7        30.09R WCI  28
6HR MIN TEMP:  34; 6HR MAX TEMP:  39;

BARNWELL         N/A     34  28  80 SW7       30.11S WCI  28
AIKEN          FAIR      32  28  86 W8        30.12R WCI  25
MANNING        FAIR      36  27  69 MISG      30.09R
COLUMBIA       CLEAR     34  29  82 W7        30.08R WCI  28
6HR MIN TEMP:  33; 6HR MAX TEMP:  38;

SUMTER         CLEAR     31  28  85 W3        30.05R
6HR MIN TEMP:  31; 6HR MAX TEMP:  38;

FLORENCE       CLEAR     36  30  79 W13       30.04R WCI  27
6HR MIN TEMP:  35; 6HR MAX TEMP:  41;

MYRTLE BEACH   CLEAR     37  33  85 W10       30.05R WCI  30
N MYRTLE BEACH CLEAR     38  34  85 W7        30.02R WCI  33
6HR MIN TEMP:  38; 6HR MAX TEMP:  42;


$$

GAZ063-065-086>088-099>101-113>116-118-119-134>141-150-100700-
...SOUTHEAST GEORGIA...

CITY           SKY/WX    TMP DP  RH WIND       PRES   REMARKS
SAVANNAH ARPT  CLEAR     34  29  82 W8        30.16R WCI  27
6HR MIN TEMP:  34; 6HR MAX TEMP:  41;

HUNTER AAF     CLEAR     32  27  82 W8        30.13R WCI  25
6HR MIN TEMP:  32; 6HR MAX TEMP:  40;

FORT STEWART   CLEAR     34  29  80 W8        30.15S WCI  27
6HR MIN TEMP:  34; 6HR MAX TEMP:  39;

STATESBORO     CLEAR     35  27  72 W6        30.15R WCI  30
SYLVANIA       CLEAR     34  30  85 W5        30.15R WCI  30
CLAXTON        FAIR      34  30  86 SW3       30.17R

...CSRA...CENTRAL AND FAR SOUTHEAST GEORGIA...

CITY           SKY/WX    TMP DP  RH WIND       PRES   REMARKS
THOMSON        CLEAR     32  27  81 NW7       30.18R WCI  25
AUGUSTA-BUSH   PTCLDY    33  27  78 W8        30.12R WCI  26
6HR MIN TEMP:  33; 6HR MAX TEMP:  38; 6HR PCP: TRACE;

AUGUSTA-DANIEL CLEAR     36  27  69 W8        30.11R WCI  30
SWAINSBORO     FAIR      32  30  93 W7        30.17R WCI  26
VIDALIA        CLEAR     34  30  86 W5        30.17S WCI  30
EASTMAN        FAIR      35  23  61 W6        30.21R WCI  30
HAZLEHURST     FAIR      33  25  73 CALM      30.18R
ALMA           CLEAR     34  27  75 W3        30.19R
6HR MIN TEMP:  34; 6HR MAX TEMP:  38;

WAYCROSS       CLEAR     34  28  80 W6        30.20S WCI  28
JESUP          NOT AVBL
BAXLEY         FAIR      32  28  86 W3        30.19R
BRUNSWICK      CLEAR     34  30  86 W5        30.19S WCI  30
SAINT SIMONS   CLEAR     39  31  72 W10       30.18R WCI  32
6HR MIN TEMP:  38; 6HR MAX TEMP:  43;


$$

SCZ027-028-034-036>038-045-046-048>050-GAZ119-141-100700-
...LAKE AND SUPPLEMENTAL COASTAL OBSERVATIONS...

STATION/POSITION TIME  TEMP    WIND        PRES    WAVE   SWELL
                       AIR SEA DIR/SP/G            HT/PER HT/PER/DIR
                 (UTC) (F)     (DEG/KT/KT) (MB)    (FT/S) (FT/S/D)
WINYAH BAY       0545   39     270/  7     1018.0R
LAKE MURRAY      0530   37     280/ 16/ 20 1016.9S
ACE BASIN NERRS  NOT AVBL
FORT PULASKI     0600   41 56  280/ 14/ 17 1021.2
SAPELO ISLAND    NOT AVBL

$$

ANZ835-935-AMZ111-154-330-350-352-354-370-450-454-472-100700-
...C-MAN AND BUOY OBSERVATIONS...

STATION/POSITION TIME  TEMP    WIND        PRES    WAVE   SWELL
                       AIR SEA DIR/SP/G            HT/PER HT/PER/DIR
                 (UTC) (F)     (DEG/KT/KT) (MB)    (FT/S) (FT/S/D)
BUOY 41004       0610      74  300/ 25/ 33 1017.6
BUOY 41008       0550   46 62  300/ 25/ 29 1020.2S   4/ 5   2/340/15
FOLLY BEACH CMAN 0600   38     280/  9/ 12 1019.6R
CAPERS NEARSHORE 0608   39     300/ 21/ 29 1018.2R
FRIPP NEARSHORE  0608   40 58  280/ 27/ 35 1019.7R


STATION/POSITION TIME  TEMP    WIND        PRES    WAVE   SWELL
                       AIR SEA DIR/SP/G            HT/PER HT/PER/DIR
                 (UTC) (F)     (DEG/KT/KT) (MB)    (FT/S) (FT/S/D)
5E ST. MARYS GA  0600      62                N/A     3/ 3
FRYING PAN BUOY  0610   49 69  290/ 21/ 27 1015.7
BUOY 41025       0610   47 77  290/ 25/ 31 1013.2
CAPE LOOKOUT NC  0600          290/ 16/ 21 1015.0R
BUOY 41002       0550   66 76  290/ 25/ 33 1012.2R  12/ 8
BUOY 41010       NOT AVBL
ST AUGUSTINE FL  0600   43 63  310/ 15/ 20 1022.2R


$$




USA.gov is the U.S. government's official web portal to all federal, state and local government web resources and services.